Flag for Belgium Weather past 2 weeks in Kortrijk, Belgium

Now
64 °F

Mild.


Feels Like: 64 °F
Forecast: 62 / 76 °F
Wind: 10 mph from North

Location: Lille Airport

Current Time: Aug 30, 2015 at 5:54:45 AM

Latest Report: Aug 30, 2015 at 5:30 AM


Visibility: 4 mi

Pressure: 30.01 "Hg

Humidity: 88%

Dew point: 61 °F

Location of KortrijkLocation

Historic Weather in Kortrijk — Graph

°F

Kortrijk temperature yesterday

Maximum temperature yesterday: 75 °F (at 3:00 PM)
Minimum temperature yesterday: 50 °F (at 6:00 AM)
Average temperature yesterday: 65 °F

Past Weeks' High & Low Weather Summary

 TemperatureHumidityPressure
High84 °F (Aug 22, 2:30 PM)100% (Aug 18, 5:00 AM)30.21 "Hg (Aug 18, 5:00 AM)
Low48 °F (Aug 17, 6:30 AM)32% (Aug 22, 1:00 PM)29.39 "Hg (Aug 24, 6:30 PM)
Average64 °F75%29.94 "Hg
* Reported Aug 15 5:00 AM — Aug 30 5:00 AM, Kortrijk, Weather by CustomWeather, © 2015

Note: Actual official high and low records may vary slightly from our data, if they occured in-between our weather recording intervals... More about our weather records

Advertising

Kortrijk weather history for previous 24 hours

 ConditionsComfort  
Time TempWeatherWind HumidityBarometerVisibility
5:00 AM
Sun, Aug 30
64 °FMild.7 mph88%29.98 "Hg4 mi
4:30 AM64 °FMild.9 mph88%29.98 "Hg6 mi
4:00 AM64 °FThunderstorms. Overcast.7 mph88%29.98 "HgN/A
3:30 AM64 °FThundershowers. Overcast.8 mph83%30.01 "HgN/A
3:00 AM66 °FThundershowers. Passing clouds.3 mph78%30.01 "HgN/A
2:30 AM66 °FMild.8 mph78%30.01 "HgN/A
2:00 AM66 °FPassing clouds.9 mph78%30.01 "HgN/A
1:30 AM68 °FPassing clouds.8 mph73%30.04 "HgN/A
1:00 AM68 °FPartly cloudy.8 mph73%30.04 "HgN/A
12:30 AM68 °FClear.8 mph73%30.04 "Hg10 mi
12:00 AM68 °FClear.7 mph73%30.04 "Hg10 mi
11:00 PM
Sat, Aug 29
70 °FClear.7 mph73%30.07 "Hg10 mi
10:30 PM70 °FClear.8 mph69%30.04 "Hg10 mi
10:00 PM70 °FClear.8 mph69%30.07 "Hg10 mi
9:30 PM72 °FSunny.7 mph65%30.07 "Hg10 mi
9:00 PM72 °FSunny.7 mph69%30.07 "Hg10 mi
8:30 PM73 °FSunny.7 mph65%30.07 "Hg10 mi
8:00 PM73 °FPartly sunny.8 mph61%30.07 "HgN/A
7:30 PM75 °FSunny.8 mph57%30.07 "Hg10 mi
7:00 PM75 °FSunny.8 mph57%30.07 "Hg10 mi
6:30 PM75 °FSunny.7 mph57%30.07 "Hg10 mi
6:00 PM75 °FPassing clouds.5 mph54%30.07 "HgN/A
5:30 PM75 °FPassing clouds.3 mph54%30.09 "HgN/A
5:00 PM75 °FPassing clouds.5 mph54%30.09 "HgN/A
4:30 PM75 °FPassing clouds.6 mph54%30.09 "HgN/A
4:00 PM75 °FPassing clouds.7 mph54%30.09 "HgN/A
3:30 PM75 °FPassing clouds.7 mph50%30.09 "HgN/A
3:00 PM75 °FPassing clouds.7 mph54%30.12 "HgN/A
2:30 PM73 °FPassing clouds.6 mph53%30.12 "HgN/A
2:00 PM73 °FPassing clouds.7 mph47%30.12 "HgN/A
1:30 PM72 °FPassing clouds.6 mph50%30.15 "HgN/A
1:00 PM72 °FPassing clouds.6 mph47%30.15 "HgN/A
12:00 PM72 °FPassing clouds.5 mph53%30.18 "HgN/A
11:30 AM70 °FPassing clouds.6 mph57%30.18 "HgN/A
11:00 AM68 °FPassing clouds.6 mph60%30.18 "HgN/A
10:00 AM64 °FSunny.5 mph64%30.18 "Hg10 mi
9:30 AM61 °FSunny.3 mph77%30.18 "Hg10 mi
9:00 AM59 °FSunny.3 mph77%30.15 "Hg10 mi
8:00 AM55 °FSunny.1 mph88%30.15 "Hg10 mi
7:30 AM54 °FClear.2 mph88%30.15 "Hg10 mi
7:00 AM52 °FClear.1 mph88%30.15 "Hg10 mi
6:30 AM50 °FClear.1 mph94%30.15 "Hg10 mi
6:00 AM50 °FClear.No wind94%30.15 "Hg10 mi
5:00 AM52 °FClear.No wind88%30.15 "Hg10 mi
Weather by CustomWeather, © 2015

See weather overviewHow to use our weather pages